| time (UTC) | temp F | wind direction | speed knots | gust knots | rain 1hr in | rain 24hr in | rain mn in | humidity % | barometer mb |
| 20260510131338 | 57 | 17 | 12.2 | 16.5 | 0.00 | 0.00 | 0.00 | 86 | 1017.7 |
| 20260510130834 | 57 | 15 | 9.6 | 17.4 | 0.00 | 0.00 | 0.00 | 86 | 1017.5 |
| 20260510130332 | 57 | 22 | 12.2 | 18.2 | 0.00 | 0.00 | 0.00 | 85 | 1017.0 |
| 20260510125828 | 59 | 23 | 9.6 | 16.5 | 0.00 | 0.00 | 0.00 | 86 | 1017.1 |
| 20260510125324 | 60 | 20 | 8.7 | 13.0 | 0.00 | 0.00 | 0.00 | 85 | 1016.8 |
| 20260510124821 | 60 | 23 | 7.0 | 11.3 | 0.00 | 0.00 | 0.00 | 85 | 1016.8 |
| 20260510124318 | 60 | 26 | 7.0 | 16.5 | 0.00 | 0.00 | 0.00 | 85 | 1016.5 |
| 20260510123814 | 60 | 16 | 9.6 | 14.8 | 0.00 | 0.00 | 0.00 | 85 | 1016.5 |
| 20260510123309 | 60 | 36 | 7.8 | 12.2 | 0.00 | 0.00 | 0.00 | 84 | 1016.3 |
| 20260510122806 | 60 | 25 | 5.2 | 13.9 | 0.00 | 0.00 | 0.00 | 84 | 1016.1 |
| 20260510122306 | 60 | 50 | 6.1 | 13.0 | 0.00 | 0.00 | 0.00 | 84 | 1015.9 |
| 20260510121759 | 60 | 25 | 7.8 | 14.8 | 0.00 | 0.00 | 0.00 | 83 | 1015.7 |
| 20260510121256 | 60 | 42 | 8.7 | 14.8 | 0.00 | 0.00 | 0.00 | 83 | 1015.8 |
| 20260510120753 | 60 | 51 | 11.3 | 16.5 | 0.00 | 0.00 | 0.00 | 83 | 1015.3 |
| 20260510120250 | 60 | 71 | 13.0 | 16.5 | 0.00 | 0.00 | 0.00 | 83 | 1015.3 |
| 20260510115746 | 60 | 78 | 12.2 | 17.4 | 0.00 | 0.00 | 0.00 | 82 | 1015.1 |
| 20260510115244 | 61 | 60 | 10.4 | 13.9 | 0.00 | 0.00 | 0.00 | 82 | 1015.1 |
| 20260510114738 | 61 | 49 | 6.1 | 14.8 | 0.00 | 0.00 | 0.00 | 81 | 1015.6 |
| 20260510114237 | 61 | 57 | 8.7 | 15.6 | 0.00 | 0.00 | 0.00 | 81 | 1015.3 |
| 20260510113731 | 61 | 60 | 13.0 | 18.2 | 0.00 | 0.00 | 0.00 | 81 | 1015.0 |
| 20260510113228 | 61 | 78 | 11.3 | 19.1 | 0.00 | 0.00 | 0.00 | 80 | 1014.7 |
| 20260510112719 | 61 | 69 | 12.2 | 20.0 | 0.00 | 0.00 | 0.00 | 80 | 1014.8 |
| 20260510112216 | 61 | 79 | 15.6 | 18.2 | 0.00 | 0.00 | 0.00 | 80 | 1014.8 |
| 20260510111711 | 61 | 80 | 13.0 | 16.5 | 0.00 | 0.00 | 0.00 | 81 | 1014.8 |
| 20260510111208 | 61 | 76 | 13.9 | 16.5 | 0.00 | 0.00 | 0.00 | 81 | 1015.3 |
| 20260510110702 | 61 | 59 | 16.5 | 18.2 | 0.00 | 0.00 | 0.00 | 82 | 1014.9 |
| 20260510110200 | 61 | 61 | 12.2 | 15.6 | 0.00 | 0.00 | 0.00 | 83 | 1015.1 |
| 20260510105655 | 61 | 51 | 10.4 | 13.9 | 0.00 | 0.00 | 0.00 | 84 | 1014.9 |
| 20260510105155 | 60 | 60 | 7.8 | 12.2 | 0.00 | 0.00 | 0.00 | 85 | 1015.1 |
| 20260510104652 | 60 | 34 | 9.6 | 13.9 | 0.00 | 0.00 | 0.00 | 86 | 1015.1 |
| 20260510104149 | 60 | 61 | 12.2 | 14.8 | 0.00 | 0.00 | 0.00 | 86 | 1014.6 |
| 20260510103646 | 60 | 52 | 8.7 | 13.0 | 0.00 | 0.00 | 0.00 | 86 | 1014.5 |
| 20260510103143 | 60 | 33 | 7.8 | 9.6 | 0.00 | 0.00 | 0.00 | 86 | 1014.2 |
| 20260510102633 | 60 | 63 | 9.6 | 17.4 | 0.00 | 0.00 | 0.00 | 86 | 1013.9 |
| 20260510102129 | 60 | 77 | 13.0 | 16.5 | 0.00 | 0.00 | 0.00 | 86 | 1013.9 |
| 20260510101626 | 60 | 83 | 9.6 | 18.2 | 0.00 | 0.00 | 0.00 | 86 | 1013.6 |
| 20260510101124 | 60 | 71 | 11.3 | 15.6 | 0.00 | 0.00 | 0.00 | 85 | 1013.7 |
| 20260510100620 | 60 | 68 | 13.0 | 18.2 | 0.00 | 0.00 | 0.00 | 85 | 1013.7 |
| 20260510100118 | 60 | 69 | 14.8 | 15.6 | 0.00 | 0.00 | 0.00 | 85 | 1013.3 |
| 20260510095614 | 60 | 72 | 8.7 | 13.9 | 0.00 | 0.00 | 0.00 | 85 | 1013.8 |
| 20260510095114 | 60 | 46 | 7.8 | 9.6 | 0.00 | 0.00 | 0.00 | 85 | 1013.9 |
| 20260510094612 | 60 | 26 | 2.6 | 8.7 | 0.00 | 0.00 | 0.00 | 84 | 1013.9 |
| 20260510094108 | 60 | 38 | 5.2 | 8.7 | 0.00 | 0.00 | 0.00 | 84 | 1013.8 |
| 20260510093605 | 60 | 72 | 7.8 | 9.6 | 0.00 | 0.00 | 0.00 | 84 | 1013.6 |
| 20260510093102 | 60 | 76 | 7.0 | 9.6 | 0.00 | 0.00 | 0.00 | 84 | 1013.5 |
| 20260510092559 | 60 | 82 | 7.8 | 9.6 | 0.00 | 0.00 | 0.00 | 83 | 1012.9 |
| 20260510092058 | 60 | 79 | 7.8 | 11.3 | 0.00 | 0.00 | 0.00 | 83 | 1012.7 |
| 20260510091555 | 61 | 79 | 6.1 | 13.9 | 0.00 | 0.00 | 0.00 | 82 | 1012.6 |
| 20260510091051 | 61 | 80 | 7.8 | 12.2 | 0.00 | 0.00 | 0.00 | 82 | 1012.6 |
| 20260510090549 | 61 | 84 | 9.6 | 13.0 | 0.00 | 0.00 | 0.00 | 81 | 1012.3 |
| 20260510090044 | 61 | 87 | 7.0 | 9.6 | 0.00 | 0.00 | 0.00 | 80 | 1012.5 |
| 20260510085539 | 62 | 73 | 5.2 | 9.6 | 0.00 | 0.00 | 0.00 | 79 | 1012.7 |
| 20260510085035 | 62 | 62 | 4.3 | 7.8 | 0.00 | 0.00 | 0.00 | 79 | 1012.7 |
| 20260510084532 | 62 | 67 | 6.1 | 8.7 | 0.00 | 0.00 | 0.00 | 78 | 1012.8 |
| 20260510084029 | 62 | 60 | 7.0 | 10.4 | 0.00 | 0.00 | 0.00 | 77 | 1012.9 |
| 20260510083525 | 63 | 76 | 6.1 | 11.3 | 0.00 | 0.00 | 0.00 | 77 | 1012.8 |
| 20260510083021 | 63 | 91 | 6.1 | 11.3 | 0.00 | 0.00 | 0.00 | 77 | 1012.8 |
| 20260510082518 | 63 | 87 | 6.1 | 7.8 | 0.00 | 0.00 | 0.00 | 76 | 1012.9 |
| 20260510082018 | 63 | 79 | 7.0 | 12.2 | 0.00 | 0.00 | 0.00 | 76 | 1012.6 |
| 20260510081514 | 64 | 82 | 7.0 | 11.3 | 0.00 | 0.00 | 0.00 | 75 | 1012.8 |
| 20260510081010 | 64 | 93 | 6.1 | 13.0 | 0.00 | 0.00 | 0.00 | 75 | 1012.5 |
| 20260510080509 | 64 | 94 | 10.4 | 14.8 | 0.00 | 0.00 | 0.00 | 75 | 1012.5 |
| 20260510080006 | 64 | 94 | 14.8 | 17.4 | 0.00 | 0.00 | 0.00 | 74 | 1012.6 |
| 20260510075504 | 65 | 87 | 7.0 | 14.8 | 0.00 | 0.00 | 0.00 | 74 | 1012.2 |
| 20260510075000 | 65 | 99 | 12.2 | 16.5 | 0.00 | 0.00 | 0.00 | 74 | 1012.1 |
| 20260510074458 | 65 | 98 | 8.7 | 18.2 | 0.00 | 0.00 | 0.00 | 74 | 1012.1 |
| 20260510073953 | 65 | 89 | 7.0 | 14.8 | 0.00 | 0.00 | 0.00 | 74 | 1011.8 |
| 20260510073449 | 65 | 84 | 7.8 | 16.5 | 0.00 | 0.00 | 0.00 | 74 | 1011.5 |
| 20260510072946 | 66 | 67 | 7.8 | 14.8 | 0.00 | 0.00 | 0.00 | 73 | 1011.6 |
| 20260510072443 | 66 | 68 | 9.6 | 13.9 | 0.00 | 0.00 | 0.00 | 73 | 1011.8 |
| 20260510071938 | 66 | 47 | 8.7 | 14.8 | 0.00 | 0.00 | 0.00 | 73 | 1011.8 |
| 20260510071435 | 67 | 79 | 9.6 | 16.5 | 0.00 | 0.00 | 0.00 | 73 | 1011.9 |
| 20260510070933 | 67 | 60 | 8.7 | 13.0 | 0.00 | 0.00 | 0.00 | 73 | 1012.0 |
| 20260510070430 | 67 | 69 | 10.4 | 16.5 | 0.00 | 0.00 | 0.00 | 72 | 1011.8 |
| 20260510065926 | 67 | 71 | 11.3 | 15.6 | 0.00 | 0.00 | 0.00 | 72 | 1011.7 |
| 20260510065422 | 67 | 60 | 7.8 | 13.0 | 0.00 | 0.00 | 0.00 | 73 | 1011.8 |
| 20260510064918 | 67 | 69 | 11.3 | 14.8 | 0.00 | 0.00 | 0.00 | 72 | 1011.9 |
| 20260510064417 | 68 | 59 | 11.3 | 15.6 | 0.00 | 0.00 | 0.00 | 72 | 1011.8 |
| 20260510063913 | 68 | 54 | 8.7 | 14.8 | 0.00 | 0.00 | 0.00 | 72 | 1011.1 |
| 20260510063409 | 68 | 52 | 12.2 | 18.2 | 0.00 | 0.00 | 0.00 | 72 | 1011.6 |
| 20260510062907 | 68 | 70 | 13.9 | 16.5 | 0.00 | 0.00 | 0.00 | 72 | 1011.3 |
| 20260510062402 | 68 | 82 | 14.8 | 16.5 | 0.00 | 0.00 | 0.00 | 71 | 1011.7 |
| 20260510061858 | 68 | 92 | 11.3 | 16.5 | 0.00 | 0.00 | 0.00 | 71 | 1011.5 |
| 20260510061355 | 69 | 65 | 9.6 | 13.0 | 0.00 | 0.00 | 0.00 | 70 | 1011.5 |
| 20260510060850 | 69 | 61 | 14.8 | 18.2 | 0.00 | 0.00 | 0.00 | 68 | 1011.3 |
| 20260510060347 | 69 | 71 | 10.4 | 17.4 | 0.00 | 0.00 | 0.00 | 68 | 1011.1 |
| 20260510055843 | 70 | 74 | 13.0 | 20.9 | 0.00 | 0.00 | 0.00 | 67 | 1011.6 |
| 20260510055343 | 70 | 59 | 9.6 | 12.2 | 0.00 | 0.00 | 0.00 | 66 | 1012.0 |
| 20260510054837 | 70 | 49 | 6.1 | 7.8 | 0.00 | 0.00 | 0.00 | 65 | 1012.3 |
| 20260510054333 | 71 | 89 | 5.2 | 7.0 | 0.00 | 0.00 | 0.00 | 64 | 1011.8 |
| 20260510053827 | 71 | 67 | 8.7 | 13.9 | 0.00 | 0.00 | 0.00 | 63 | 1011.5 |
| 20260510053323 | 71 | 96 | 8.7 | 16.5 | 0.00 | 0.00 | 0.00 | 63 | 1010.9 |
| 20260510052820 | 72 | 111 | 7.0 | 21.7 | 0.00 | 0.00 | 0.00 | 61 | 1010.6 |
| 20260510052316 | 72 | 173 | 1.7 | 13.9 | 0.00 | 0.00 | 0.00 | 60 | 1010.8 |
| 20260510051812 | 72 | 64 | 9.6 | 11.3 | 0.00 | 0.00 | 0.00 | 59 | 1011.5 |
| 20260510051309 | 72 | 31 | 2.6 | 7.0 | 0.00 | 0.00 | 0.00 | 58 | 1011.3 |
| 20260510050805 | 72 | 69 | 8.7 | 12.2 | 0.00 | 0.00 | 0.00 | 58 | 1011.1 |
| 20260510050256 | 72 | 63 | 8.7 | 11.3 | 0.00 | 0.00 | 0.00 | 57 | 1011.0 |
| 20260510045753 | 72 | 86 | 5.2 | 8.7 | 0.00 | 0.00 | 0.00 | 54 | 1011.0 |
| 20260510045244 | 72 | 76 | 6.1 | 7.8 | 0.00 | 0.00 | 0.00 | 52 | 1010.9 |
| 20260510044742 | 73 | 32 | 4.3 | 7.0 | 0.00 | 0.00 | 0.00 | 50 | 1011.0 |
| 20260510044239 | 73 | 78 | 3.5 | 5.2 | 0.00 | 0.00 | 0.00 | 50 | 1010.9 |
| 20260510043734 | 72 | 85 | 3.5 | 4.3 | 0.00 | 0.00 | 0.00 | 51 | 1010.8 |
| 20260510043231 | 71 | 89 | 3.5 | 3.5 | 0.00 | 0.00 | 0.00 | 48 | 1011.0 |
| 20260510042729 | 71 | 193 | 3.5 | 4.3 | 0.00 | 0.00 | 0.00 | 46 | 1011.2 |
| 20260510042224 | 72 | 238 | 2.6 | 3.5 | 0.00 | 0.00 | 0.00 | 47 | 1011.1 |
| 20260510041721 | 72 | 324 | 2.6 | 3.5 | 0.00 | 0.00 | 0.00 | 43 | 1010.9 |
| 20260510041218 | 73 | 11 | 3.5 | 5.2 | 0.00 | 0.00 | 0.00 | 48 | 1010.9 |
| 20260510040715 | 73 | 79 | 3.5 | 7.0 | 0.00 | 0.00 | 0.00 | 46 | 1010.8 |
| 20260510040212 | 73 | 80 | 6.1 | 7.8 | 0.00 | 0.00 | 0.00 | 43 | 1010.7 |
| 20260510035707 | 74 | 63 | 5.2 | 7.8 | 0.00 | 0.00 | 0.00 | 39 | 1010.6 |
| 20260510035204 | 74 | 3 | 3.5 | 4.3 | 0.00 | 0.00 | 0.00 | 31 | 1010.8 |
| 20260510034700 | 75 | 1 | 3.5 | 6.1 | 0.00 | 0.00 | 0.00 | 22 | 1010.4 |
| 20260510034157 | 76 | 21 | 3.5 | 7.0 | 0.00 | 0.00 | 0.00 | 26 | 1010.2 |
| 20260510033653 | 76 | 49 | 3.5 | 5.2 | 0.00 | 0.00 | 0.00 | 21 | 1010.2 |
| 20260510033151 | 78 | 52 | 4.3 | 6.1 | 0.00 | 0.00 | 0.00 | 20 | 1010.2 |
| 20260510032647 | 79 | 60 | 6.1 | 12.2 | 0.00 | 0.00 | 0.00 | 19 | 1010.6 |
| 20260510032143 | 79 | 41 | 4.3 | 7.0 | 0.00 | 0.00 | 0.00 | 18 | 1010.4 |
| 20260510031637 | 80 | 23 | 1.7 | 2.6 | 0.00 | 0.00 | 0.00 | 18 | 1010.4 |
| 20260510031135 | 78 | 349 | 2.6 | 5.2 | 0.00 | 0.00 | 0.00 | 18 | 1010.3 |
| 20260510030629 | 75 | 219 | 2.6 | 9.6 | 0.00 | 0.00 | 0.00 | 19 | 1010.3 |
| 20260510030127 | 76 | 210 | 5.2 | 5.2 | 0.00 | 0.00 | 0.00 | 19 | 1009.8 |
| 20260510025624 | 76 | 337 | 1.7 | 2.6 | 0.00 | 0.00 | 0.00 | 19 | 1009.7 |
| 20260510025121 | 77 | 7 | 2.6 | 3.5 | 0.00 | 0.00 | 0.00 | 18 | 1009.4 |
| 20260510024618 | 77 | 29 | 2.6 | 3.5 | 0.00 | 0.00 | 0.00 | 18 | 1009.2 |
| 20260510024114 | 79 | 9 | 2.6 | 4.3 | 0.00 | 0.00 | 0.00 | 17 | 1008.9 |
| 20260510023610 | 79 | 70 | 2.6 | 6.1 | 0.00 | 0.00 | 0.00 | 17 | 1008.8 |
| 20260510023108 | 78 | 76 | 3.5 | 5.2 | 0.00 | 0.00 | 0.00 | 18 | 1008.6 |
| 20260510022607 | 78 | 66 | 4.3 | 4.3 | 0.00 | 0.00 | 0.00 | 18 | 1008.6 |
| 20260510022102 | 77 | 83 | 2.6 | 3.5 | 0.00 | 0.00 | 0.00 | 18 | 1008.6 |
| 20260510021559 | 78 | 91 | 3.5 | 4.3 | 0.00 | 0.00 | 0.00 | 17 | 1008.4 |
| 20260510021056 | 79 | 105 | 2.6 | 5.2 | 0.00 | 0.00 | 0.00 | 17 | 1008.3 |
| 20260510020556 | 79 | 97 | 3.5 | 4.3 | 0.00 | 0.00 | 0.00 | 17 | 1008.4 |
| 20260510020052 | 80 | 82 | 3.5 | 4.3 | 0.00 | 0.00 | 0.00 | 17 | 1008.3 |
| 20260510015548 | 80 | 85 | 2.6 | 5.2 | 0.00 | 0.00 | 0.00 | 17 | 1008.1 |
| 20260510015044 | 80 | 69 | 2.6 | 4.3 | 0.00 | 0.00 | 0.00 | 17 | 1008.1 |
| 20260510014540 | 81 | 86 | 3.5 | 4.3 | 0.00 | 0.00 | 0.00 | 16 | 1008.0 |
| 20260510014038 | 81 | 78 | 2.6 | 4.3 | 0.00 | 0.00 | 0.00 | 17 | 1007.9 |
| 20260510013532 | 82 | 77 | 3.5 | 3.5 | 0.00 | 0.00 | 0.00 | 16 | 1008.0 |
| 20260510013028 | 82 | 85 | 1.7 | 2.6 | 0.00 | 0.00 | 0.00 | 17 | 1008.0 |
| 20260510012522 | 82 | 85 | 2.6 | 3.5 | 0.00 | 0.00 | 0.00 | 16 | 1007.8 |
| 20260510012019 | 83 | 75 | 0.0 | 2.6 | 0.00 | 0.00 | 0.00 | 16 | 1007.7 |
| 20260510011519 | 85 | 52 | 2.6 | 4.3 | 0.00 | 0.00 | 0.00 | 15 | 1007.7 |
| 20260510011014 | 86 | 40 | 2.6 | 3.5 | 0.00 | 0.00 | 0.00 | 15 | 1007.8 |
| 20260510010512 | 87 | 7 | 2.6 | 3.5 | 0.00 | 0.00 | 0.00 | 14 | 1007.4 |
| 20260510010009 | 89 | 353 | 2.6 | 2.6 | 0.00 | 0.00 | 0.00 | 14 | 1007.7 |
| 20260510005504 | 89 | 357 | 2.6 | 2.6 | 0.00 | 0.00 | 0.00 | 14 | 1007.4 |
| 20260510005002 | 89 | 11 | 0.9 | 2.6 | 0.00 | 0.00 | 0.00 | 14 | 1007.4 |
| 20260510004459 | 89 | 56 | 2.6 | 3.5 | 0.00 | 0.00 | 0.00 | 13 | 1007.6 |
| 20260510003957 | 90 | 355 | 2.6 | 3.5 | 0.00 | 0.00 | 0.00 | 13 | 1007.4 |
| 20260510003454 | 90 | 358 | 4.3 | 5.2 | 0.00 | 0.00 | 0.00 | 13 | 1007.4 |
| 20260510002949 | 90 | 1 | 3.5 | 5.2 | 0.00 | 0.00 | 0.00 | 13 | 1007.7 |
| 20260510002445 | 90 | 325 | 7.0 | 9.6 | 0.00 | 0.00 | 0.00 | 12 | 1007.8 |
| 20260510001942 | 90 | 9 | 5.2 | 7.0 | 0.00 | 0.00 | 0.00 | 13 | 1007.8 |
| 20260510001439 | 91 | 309 | 4.3 | 8.7 | 0.00 | 0.00 | 0.00 | 11 | 1007.7 |
| 20260510000937 | 90 | 318 | 4.3 | 7.0 | 0.00 | 0.00 | 0.00 | 11 | 1007.6 |
| 20260510000433 | 90 | 303 | 5.2 | 8.7 | 0.00 | 0.00 | 0.00 | 11 | 1007.7 |
| 20260509235929 | 90 | 300 | 7.8 | 11.3 | 0.00 | 0.00 | 0.00 | 11 | 1007.8 |
| 20260509235426 | 91 | 306 | 5.2 | 9.6 | 0.00 | 0.00 | 0.00 | 12 | 1007.7 |
| 20260509234922 | 91 | 341 | 7.8 | 11.3 | 0.00 | 0.00 | 0.00 | 12 | 1007.8 |
| 20260509234419 | 91 | 329 | 8.7 | 10.4 | 0.00 | 0.00 | 0.00 | 11 | 1007.9 |
| 20260509233917 | 91 | 295 | 8.7 | 13.0 | 0.00 | 0.00 | 0.00 | 11 | 1007.8 |
| 20260509233414 | 91 | 335 | 6.1 | 7.0 | 0.00 | 0.00 | 0.00 | 11 | 1008.0 |
| 20260509232910 | 91 | 340 | 12.2 | 18.2 | 0.00 | 0.00 | 0.00 | 11 | 1008.0 |
| 20260509232403 | 91 | 327 | 3.5 | 8.7 | 0.00 | 0.00 | 0.00 | 12 | 1007.9 |
| 20260509231858 | 91 | 314 | 6.1 | 12.2 | 0.00 | 0.00 | 0.00 | 12 | 1008.1 |
| 20260509231355 | 91 | 322 | 7.0 | 10.4 | 0.00 | 0.00 | 0.00 | 12 | 1008.1 |
| 20260509230853 | 91 | 256 | 6.1 | 8.7 | 0.00 | 0.00 | 0.00 | 11 | 1007.9 |
| 20260509230350 | 90 | 297 | 8.7 | 13.0 | 0.00 | 0.00 | 0.00 | 11 | 1008.0 |
| 20260509225845 | 91 | 301 | 11.3 | 13.9 | 0.00 | 0.00 | 0.00 | 11 | 1008.0 |
| 20260509225342 | 90 | 298 | 5.2 | 10.4 | 0.00 | 0.00 | 0.00 | 11 | 1008.2 |
| 20260509224838 | 91 | 300 | 7.0 | 9.6 | 0.00 | 0.00 | 0.00 | 12 | 1008.2 |
| 20260509224334 | 91 | 291 | 7.0 | 15.6 | 0.00 | 0.00 | 0.00 | 13 | 1008.2 |
| 20260509223831 | 91 | 309 | 7.8 | 9.6 | 0.00 | 0.00 | 0.00 | 12 | 1008.0 |
| 20260509223328 | 91 | 283 | 5.2 | 9.6 | 0.00 | 0.00 | 0.00 | 12 | 1008.0 |
| 20260509222825 | 90 | 309 | 8.7 | 13.0 | 0.00 | 0.00 | 0.00 | 11 | 1008.2 |
| 20260509222320 | 91 | 322 | 5.2 | 17.4 | 0.00 | 0.00 | 0.00 | 12 | 1008.1 |
| 20260509221816 | 91 | 300 | 5.2 | 13.0 | 0.00 | 0.00 | 0.00 | 12 | 1008.2 |
| 20260509221313 | 91 | 299 | 5.2 | 13.9 | 0.00 | 0.00 | 0.00 | 14 | 1008.1 |
| 20260509220808 | 91 | 317 | 11.3 | 13.9 | 0.00 | 0.00 | 0.00 | 13 | 1008.2 |
| 20260509220305 | 90 | 288 | 7.0 | 14.8 | 0.00 | 0.00 | 0.00 | 14 | 1008.6 |
| 20260509215800 | 92 | 306 | 9.6 | 10.4 | 0.00 | 0.00 | 0.00 | 13 | 1008.1 |
| 20260509215257 | 91 | 286 | 5.2 | 13.9 | 0.00 | 0.00 | 0.00 | 15 | 1008.3 |
| 20260509214754 | 92 | 286 | 7.0 | 11.3 | 0.00 | 0.00 | 0.00 | 15 | 1008.2 |
| 20260509214251 | 91 | 239 | 5.2 | 11.3 | 0.00 | 0.00 | 0.00 | 15 | 1008.3 |
| 20260509213748 | 91 | 299 | 7.0 | 14.8 | 0.00 | 0.00 | 0.00 | 14 | 1008.7 |
| 20260509213244 | 90 | 227 | 4.3 | 8.7 | 0.00 | 0.00 | 0.00 | 14 | 1008.6 |
| 20260509212741 | 92 | 308 | 13.0 | 14.8 | 0.00 | 0.00 | 0.00 | 14 | 1008.4 |
| 20260509212239 | 91 | 277 | 7.0 | 17.4 | 0.00 | 0.00 | 0.00 | 14 | 1008.7 |
| 20260509211734 | 91 | 294 | 12.2 | 12.2 | 0.00 | 0.00 | 0.00 | 15 | 1008.6 |
| 20260509211231 | 91 | 271 | 5.2 | 14.8 | 0.00 | 0.00 | 0.00 | 17 | 1008.8 |
| 20260509210727 | 90 | 267 | 7.0 | 12.2 | 0.00 | 0.00 | 0.00 | 16 | 1008.8 |
| 20260509210225 | 90 | 289 | 8.7 | 13.0 | 0.00 | 0.00 | 0.00 | 17 | 1008.7 |
| 20260509205724 | 91 | 320 | 11.3 | 16.5 | 0.00 | 0.00 | 0.00 | 18 | 1008.8 |
| 20260509205224 | 91 | 297 | 4.3 | 9.6 | 0.00 | 0.00 | 0.00 | 17 | 1008.7 |
| 20260509204721 | 91 | 296 | 7.0 | 12.2 | 0.00 | 0.00 | 0.00 | 18 | 1009.0 |
| 20260509204217 | 90 | 291 | 9.6 | 17.4 | 0.00 | 0.00 | 0.00 | 18 | 1009.0 |
| 20260509203713 | 90 | 296 | 11.3 | 16.5 | 0.00 | 0.00 | 0.00 | 18 | 1009.1 |
| 20260509203211 | 89 | 243 | 8.7 | 14.8 | 0.00 | 0.00 | 0.00 | 19 | 1009.3 |
| 20260509202707 | 89 | 313 | 9.6 | 14.8 | 0.00 | 0.00 | 0.00 | 18 | 1009.3 |
| 20260509202202 | 90 | 299 | 7.8 | 11.3 | 0.00 | 0.00 | 0.00 | 19 | 1009.4 |
| 20260509201657 | 89 | 275 | 6.1 | 12.2 | 0.00 | 0.00 | 0.00 | 20 | 1009.1 |
| 20260509201154 | 89 | 317 | 11.3 | 13.0 | 0.00 | 0.00 | 0.00 | 19 | 1009.4 |
| 20260509200651 | 90 | 233 | 4.3 | 9.6 | 0.00 | 0.00 | 0.00 | 18 | 1009.2 |
| 20260509200145 | 90 | 292 | 7.8 | 12.2 | 0.00 | 0.00 | 0.00 | 21 | 1009.3 |
| 20260509195641 | 89 | 231 | 3.5 | 11.3 | 0.00 | 0.00 | 0.00 | 20 | 1009.4 |
| 20260509195136 | 89 | 210 | 5.2 | 11.3 | 0.00 | 0.00 | 0.00 | 19 | 1009.6 |
| 20260509194631 | 90 | 231 | 5.2 | 11.3 | 0.00 | 0.00 | 0.00 | 18 | 1009.8 |
| 20260509194129 | 89 | 258 | 7.8 | 13.0 | 0.00 | 0.00 | 0.00 | 20 | 1009.6 |
| 20260509193624 | 89 | 233 | 6.1 | 9.6 | 0.00 | 0.00 | 0.00 | 21 | 1009.7 |
| 20260509193120 | 88 | 227 | 11.3 | 14.8 | 0.00 | 0.00 | 0.00 | 20 | 1009.9 |
| 20260509192617 | 89 | 236 | 1.7 | 10.4 | 0.00 | 0.00 | 0.00 | 20 | 1010.0 |
| 20260509192112 | 88 | 225 | 3.5 | 13.0 | 0.00 | 0.00 | 0.00 | 20 | 1010.2 |
| 20260509191607 | 88 | 234 | 11.3 | 16.5 | 0.00 | 0.00 | 0.00 | 20 | 1010.1 |
| 20260509191103 | 88 | 264 | 3.5 | 9.6 | 0.00 | 0.00 | 0.00 | 23 | 1010.2 |
| 20260509190600 | 87 | 286 | 2.6 | 11.3 | 0.00 | 0.00 | 0.00 | 22 | 1010.1 |
| 20260509190058 | 88 | 301 | 7.8 | 9.6 | 0.00 | 0.00 | 0.00 | 24 | 1010.3 |
| 20260509185555 | 86 | 295 | 5.2 | 13.0 | 0.00 | 0.00 | 0.00 | 23 | 1010.3 |
| 20260509185051 | 86 | 227 | 8.7 | 11.3 | 0.00 | 0.00 | 0.00 | 23 | 1010.3 |
| 20260509184550 | 87 | 235 | 3.5 | 13.0 | 0.00 | 0.00 | 0.00 | 24 | 1010.7 |
| 20260509184045 | 86 | 212 | 9.6 | 14.8 | 0.00 | 0.00 | 0.00 | 24 | 1010.8 |
| 20260509183541 | 85 | 268 | 6.1 | 13.0 | 0.00 | 0.00 | 0.00 | 24 | 1010.7 |
| 20260509183036 | 87 | 239 | 8.7 | 14.8 | 0.00 | 0.00 | 0.00 | 23 | 1010.8 |
| 20260509182533 | 86 | 221 | 13.0 | 22.6 | 0.00 | 0.00 | 0.00 | 23 | 1010.8 |
| 20260509182025 | 86 | 205 | 11.3 | 19.1 | 0.00 | 0.00 | 0.00 | 24 | 1010.9 |
| 20260509181523 | 86 | 221 | 9.6 | 13.9 | 0.00 | 0.00 | 0.00 | 25 | 1011.1 |
| 20260509181020 | 86 | 227 | 10.4 | 13.9 | 0.00 | 0.00 | 0.00 | 25 | 1011.3 |
| 20260509180515 | 85 | 212 | 9.6 | 14.8 | 0.00 | 0.00 | 0.00 | 26 | 1011.3 |
| 20260509180014 | 87 | 200 | 13.9 | 20.0 | 0.00 | 0.00 | 0.00 | 24 | 1011.5 |
| 20260509175508 | 84 | 207 | 4.3 | 11.3 | 0.00 | 0.00 | 0.00 | 27 | 1011.6 |
| 20260509175005 | 84 | 228 | 13.9 | 21.7 | 0.00 | 0.00 | 0.00 | 27 | 1011.7 |
| 20260509174502 | 83 | 212 | 10.4 | 14.8 | 0.00 | 0.00 | 0.00 | 28 | 1011.8 |
| 20260509173956 | 86 | 197 | 14.8 | 16.5 | 0.00 | 0.00 | 0.00 | 26 | 1011.8 |
| 20260509173451 | 85 | 218 | 11.3 | 16.5 | 0.00 | 0.00 | 0.00 | 28 | 1011.9 |
| 20260509172948 | 84 | 174 | 8.7 | 17.4 | 0.00 | 0.00 | 0.00 | 28 | 1011.8 |
| 20260509172445 | 83 | 203 | 9.6 | 12.2 | 0.00 | 0.00 | 0.00 | 30 | 1012.0 |
| 20260509171940 | 83 | 198 | 10.4 | 17.4 | 0.00 | 0.00 | 0.00 | 29 | 1012.2 |
| 20260509171437 | 83 | 210 | 8.7 | 13.9 | 0.00 | 0.00 | 0.00 | 30 | 1012.1 |
| 20260509170933 | 84 | 190 | 9.6 | 14.8 | 0.00 | 0.00 | 0.00 | 29 | 1012.1 |
| 20260509170429 | 83 | 200 | 14.8 | 20.9 | 0.00 | 0.00 | 0.00 | 30 | 1011.9 |
| 20260509165925 | 82 | 194 | 6.1 | 14.8 | 0.00 | 0.00 | 0.00 | 32 | 1012.1 |
| 20260509165419 | 82 | 204 | 6.1 | 16.5 | 0.00 | 0.00 | 0.00 | 33 | 1012.3 |
| 20260509164915 | 82 | 172 | 9.6 | 17.4 | 0.00 | 0.00 | 0.00 | 32 | 1012.3 |
| 20260509164411 | 81 | 197 | 13.0 | 16.5 | 0.00 | 0.00 | 0.00 | 32 | 1012.3 |
| 20260509163907 | 82 | 203 | 12.2 | 14.8 | 0.00 | 0.00 | 0.00 | 32 | 1012.5 |
| 20260509163404 | 80 | 213 | 13.0 | 17.4 | 0.00 | 0.00 | 0.00 | 34 | 1012.6 |
| 20260509162903 | 80 | 203 | 7.0 | 18.2 | 0.00 | 0.00 | 0.00 | 35 | 1012.8 |
| 20260509162402 | 80 | 202 | 9.6 | 19.1 | 0.00 | 0.00 | 0.00 | 35 | 1012.6 |
| 20260509161858 | 79 | 161 | 6.1 | 14.8 | 0.00 | 0.00 | 0.00 | 37 | 1012.8 |
| 20260509161354 | 80 | 176 | 10.4 | 15.6 | 0.00 | 0.00 | 0.00 | 36 | 1012.9 |
| 20260509160850 | 79 | 164 | 9.6 | 13.9 | 0.00 | 0.00 | 0.00 | 36 | 1012.8 |
| 20260509160346 | 79 | 164 | 7.8 | 17.4 | 0.00 | 0.00 | 0.00 | 37 | 1013.0 |
| 20260509155841 | 78 | 168 | 9.6 | 16.5 | 0.00 | 0.00 | 0.00 | 39 | 1012.9 |
| 20260509155338 | 77 | 172 | 7.8 | 17.4 | 0.00 | 0.00 | 0.00 | 38 | 1013.0 |
| 20260509154834 | 78 | 164 | 11.3 | 16.5 | 0.00 | 0.00 | 0.00 | 36 | 1012.9 |
| 20260509154331 | 78 | 159 | 12.2 | 14.8 | 0.00 | 0.00 | 0.00 | 40 | 1013.2 |
| 20260509153828 | 77 | 179 | 7.8 | 12.2 | 0.00 | 0.00 | 0.00 | 42 | 1013.1 |
| 20260509153324 | 76 | 152 | 12.2 | 13.0 | 0.00 | 0.00 | 0.00 | 41 | 1013.1 |
| 20260509152822 | 76 | 178 | 12.2 | 13.0 | 0.00 | 0.00 | 0.00 | 42 | 1013.0 |
| 20260509152317 | 75 | 193 | 7.0 | 15.6 | 0.00 | 0.00 | 0.00 | 46 | 1013.2 |
| 20260509151815 | 74 | 159 | 9.6 | 9.6 | 0.00 | 0.00 | 0.00 | 47 | 1013.3 |
| 20260509151311 | 74 | 186 | 7.8 | 13.9 | 0.00 | 0.00 | 0.00 | 47 | 1013.3 |
| 20260509150810 | 74 | 174 | 8.7 | 13.9 | 0.00 | 0.00 | 0.00 | 46 | 1013.3 |
| 20260509150307 | 74 | 187 | 8.7 | 12.2 | 0.00 | 0.00 | 0.00 | 49 | 1013.2 |
| 20260509145804 | 74 | 170 | 7.8 | 11.3 | 0.00 | 0.00 | 0.00 | 48 | 1013.2 |
| 20260509145306 | 74 | 164 | 10.4 | 12.2 | 0.00 | 0.00 | 0.00 | 51 | 1013.3 |
| 20260509144800 | 72 | 119 | 5.2 | 8.7 | 0.00 | 0.00 | 0.00 | 54 | 1013.5 |
| 20260509144257 | 71 | 162 | 7.8 | 9.6 | 0.00 | 0.00 | 0.00 | 53 | 1013.3 |
| 20260509143755 | 71 | 151 | 9.6 | 12.2 | 0.00 | 0.00 | 0.00 | 53 | 1013.5 |
| 20260509143252 | 72 | 155 | 7.8 | 11.3 | 0.00 | 0.00 | 0.00 | 52 | 1013.5 |
| 20260509142748 | 71 | 152 | 10.4 | 13.9 | 0.00 | 0.00 | 0.00 | 53 | 1013.6 |
| 20260509142244 | 71 | 159 | 11.3 | 14.8 | 0.00 | 0.00 | 0.00 | 52 | 1013.3 |
| 20260509141740 | 71 | 165 | 7.8 | 11.3 | 0.00 | 0.00 | 0.00 | 53 | 1013.6 |
| 20260509141237 | 70 | 130 | 4.3 | 6.1 | 0.00 | 0.00 | 0.00 | 54 | 1013.5 |
| 20260509140734 | 70 | 148 | 2.6 | 4.3 | 0.00 | 0.00 | 0.00 | 54 | 1013.5 |
| 20260509140231 | 70 | 95 | 2.6 | 3.5 | 0.00 | 0.00 | 0.00 | 50 | 1013.6 |
| 20260509135728 | 68 | 10 | 1.7 | 1.7 | 0.00 | 0.00 | 0.00 | 47 | 1013.6 |
| 20260509135226 | 66 | 4 | 1.7 | 1.7 | 0.00 | 0.00 | 0.00 | 47 | 1013.6 |
| 20260509134723 | 64 | 63 | 1.7 | 2.6 | 0.00 | 0.00 | 0.00 | 50 | 1013.7 |
| 20260509134221 | 62 | 17 | 1.7 | 2.6 | 0.00 | 0.00 | 0.00 | 50 | 1013.6 |
| 20260509133718 | 62 | 322 | 2.6 | 3.5 | 0.00 | 0.00 | 0.00 | 48 | 1013.7 |
| 20260509133214 | 66 | 19 | 2.6 | 3.5 | 0.00 | 0.00 | 0.00 | 47 | 1013.3 |
| 20260509132713 | 66 | 61 | 1.7 | 2.6 | 0.00 | 0.00 | 0.00 | 46 | 1013.6 |
| 20260509132211 | 64 | 50 | 0.0 | 1.7 | 0.00 | 0.00 | 0.00 | 49 | 1013.8 |